sat.trackr.live / text

‹ back to catalog

STARLINK-30752

NORAD 58171 · 2023-166X

PAYLOAD ACTIVE UNKNOWN

§ Identity

Operator
Country
US
Launch date
2023-10-29
Launch site
AFWTR
Launch vehicle
Mass (kg)
RCS (m²)

Purposes: comms

External: N2YO · Heavens-Above · Gunter

§ Orbital elements

Epoch: 2026-09-20T14:16:16.240224Z

Period
93.85 min
Inclination
53.1632°
Eccentricity
0.0000762
Mean motion
15.34412796 rev/d
Perigee alt
462.1 km
Apogee alt
463.2 km
Semi-major
6,840.8 km
B*
-1.0405e-4
RAAN
33.3362°
Arg perigee
105.4517°
Mean anomaly
254.6570°
Rev number
16,303

§ Raw data

STARLINK-307521 58171U 23166X   26263.59463241 -.00003891  00000+0 -10405-3 0  99982 58171  53.1632  33.3362 0000762 105.4517 254.6570 15.34412796163036

JSON: /api/v1/satellites/58171 · /tle

For live sub-satellite position, see the globe view (requires WebGL).

§ Visibility from observer

Set your observer location to see the next 7 days of passes ≥ 10°. The values pass through the URL so the page stays shareable.

No JS? Fill the form by hand. The geolocation button needs JavaScript.